CEB24 RPLL-RPVA

Flight info

Callsign CEB24
Flight time 1h 6m
Altitude 31000
Route IPATA2R IPATA B462 ARREX ARREX2R
Aircraft A321/M-SDE3FGHIRWY/LB1

Departure

Time 2026-04-22 08:09
Airport Ninoy Aquino International Airport (RPLL)

Arrival

Time 2026-04-22 09:15
Airport Daniel Z. Romualdez Airport (RPVA)
Time Latitude Longitude Altitude Speed Heading
2026-04-22 07:48 14.51683 121.01698 69 ft 0 kts 197°
2026-04-22 07:48 14.51686 121.01699 70 ft 0 kts 197°
2026-04-22 07:49 14.51683 121.01698 69 ft 0 kts 197°
2026-04-22 07:56 14.51704 121.01704 61 ft 4 kts 197°
2026-04-22 07:56 14.51727 121.01712 64 ft 1 kts 197°
2026-04-22 07:56 14.51749 121.01716 59 ft 4 kts 161°
2026-04-22 07:57 14.51768 121.01703 67 ft 2 kts 135°
2026-04-22 07:57 14.51755 121.01717 59 ft 4 kts 135°
2026-04-22 07:57 14.51736 121.01736 59 ft 4 kts 135°
2026-04-22 07:57 14.51717 121.01756 62 ft 3 kts 135°
2026-04-22 07:58 14.51713 121.01760 68 ft 0 kts 135°
2026-04-22 08:00 14.51682 121.01781 66 ft 11 kts 157°
2026-04-22 08:00 14.51593 121.01741 65 ft 19 kts 226°
2026-04-22 08:00 14.51495 121.01645 64 ft 18 kts 224°
2026-04-22 08:00 14.51410 121.01575 64 ft 14 kts 211°
2026-04-22 08:01 14.51338 121.01608 68 ft 12 kts 135°
2026-04-22 08:01 14.51281 121.01666 65 ft 11 kts 135°
2026-04-22 08:01 14.51229 121.01720 65 ft 10 kts 134°
2026-04-22 08:01 14.51182 121.01768 66 ft 9 kts 135°
2026-04-22 08:02 14.51111 121.01841 63 ft 20 kts 135°
2026-04-22 08:02 14.51027 121.01914 64 ft 9 kts 169°
2026-04-22 08:02 14.50983 121.01883 62 ft 7 kts 236°
2026-04-22 08:02 14.50954 121.01831 63 ft 12 kts 240°
2026-04-22 08:03 14.50896 121.01726 63 ft 22 kts 241°
2026-04-22 08:03 14.50804 121.01563 64 ft 30 kts 240°
2026-04-22 08:03 14.50713 121.01400 60 ft 14 kts 240°
2026-04-22 08:03 14.50668 121.01320 63 ft 12 kts 239°
2026-04-22 08:04 14.50632 121.01252 61 ft 10 kts 241°
2026-04-22 08:04 14.50600 121.01196 64 ft 8 kts 239°
2026-04-22 08:04 14.50573 121.01147 59 ft 8 kts 241°
2026-04-22 08:04 14.50531 121.01071 69 ft 17 kts 239°
2026-04-22 08:05 14.50454 121.00935 66 ft 27 kts 241°
2026-04-22 08:05 14.50353 121.00753 58 ft 29 kts 240°
2026-04-22 08:05 14.50254 121.00574 68 ft 28 kts 240°
2026-04-22 08:05 14.50159 121.00403 64 ft 27 kts 239°
2026-04-22 08:06 14.50069 121.00242 61 ft 25 kts 240°
2026-04-22 08:06 14.49983 121.00089 65 ft 22 kts 240°
2026-04-22 08:06 14.49914 120.99975 60 ft 16 kts 221°
2026-04-22 08:06 14.49877 120.99969 63 ft 0 kts 170°
2026-04-22 08:08 14.49825 120.99994 66 ft 19 kts 145°
2026-04-22 08:08 14.49873 121.00172 61 ft 53 kts 59°
2026-04-22 08:08 14.50163 121.00688 59 ft 111 kts 60°
2026-04-22 08:08 14.50460 121.01221 67 ft 141 kts 60°
2026-04-22 08:09 14.51014 121.02204 182 ft 167 kts 63°
2026-04-22 08:09 14.51576 121.03234 818 ft 164 kts 64°
2026-04-22 08:09 14.52135 121.04257 1391 ft 164 kts 63°
2026-04-22 08:09 14.52704 121.05281 1818 ft 166 kts 63°
2026-04-22 08:10 14.53306 121.06369 1972 ft 181 kts 63°
2026-04-22 08:10 14.53961 121.07549 2085 ft 199 kts 63°
2026-04-22 08:10 14.54689 121.08863 2217 ft 223 kts 63°
2026-04-22 08:10 14.55500 121.10325 2381 ft 245 kts 63°
2026-04-22 08:11 14.56373 121.11895 2832 ft 257 kts 62°
2026-04-22 08:11 14.57154 121.13539 3455 ft 259 kts 74°
2026-04-22 08:11 14.57346 121.15378 4091 ft 260 kts 98°
2026-04-22 08:11 14.56770 121.17146 4705 ft 264 kts 122°
2026-04-22 08:12 14.55514 121.18549 5330 ft 269 kts 137°
2026-04-22 08:12 14.54099 121.19844 5948 ft 274 kts 137°
2026-04-22 08:12 14.52657 121.21152 6557 ft 277 kts 138°
2026-04-22 08:12 14.51221 121.22453 7157 ft 280 kts 137°
2026-04-22 08:13 14.49751 121.23790 7762 ft 282 kts 137°
2026-04-22 08:13 14.48269 121.25140 8371 ft 285 kts 137°
2026-04-22 08:13 14.46777 121.26500 8969 ft 287 kts 137°
2026-04-22 08:13 14.45272 121.27874 9557 ft 290 kts 136°
2026-04-22 08:14 14.43756 121.29262 10091 ft 293 kts 137°
2026-04-22 08:14 14.42188 121.30700 10285 ft 311 kts 136°
2026-04-22 08:14 14.40525 121.32226 10410 ft 329 kts 137°
2026-04-22 08:14 14.38767 121.33838 10558 ft 345 kts 137°
2026-04-22 08:15 14.36942 121.35501 10948 ft 353 kts 137°
2026-04-22 08:15 14.35089 121.37188 11437 ft 357 kts 137°
2026-04-22 08:15 14.33219 121.38894 11930 ft 361 kts 137°
2026-04-22 08:15 14.31358 121.40595 12423 ft 364 kts 138°
2026-04-22 08:16 14.29450 121.42339 12904 ft 367 kts 138°
2026-04-22 08:16 14.27530 121.44091 13388 ft 371 kts 138°
2026-04-22 08:16 14.25584 121.45863 13844 ft 374 kts 138°
2026-04-22 08:16 14.23631 121.47642 14275 ft 377 kts 138°
2026-04-22 08:17 14.21653 121.49443 14724 ft 380 kts 138°
2026-04-22 08:17 14.19667 121.51252 15138 ft 383 kts 138°
2026-04-22 08:17 14.17661 121.53078 15552 ft 386 kts 138°
2026-04-22 08:17 14.15643 121.54916 15964 ft 389 kts 138°
2026-04-22 08:18 14.13613 121.56765 16370 ft 391 kts 138°
2026-04-22 08:18 14.11563 121.58631 16770 ft 394 kts 138°
2026-04-22 08:18 14.09502 121.60506 17175 ft 397 kts 138°
2026-04-22 08:18 14.07419 121.62399 17556 ft 399 kts 139°
2026-04-22 08:19 14.05331 121.64296 17964 ft 402 kts 139°
2026-04-22 08:19 14.03227 121.66207 18315 ft 404 kts 139°
2026-04-22 08:19 14.01112 121.68131 18648 ft 406 kts 139°
2026-04-22 08:19 13.98990 121.70063 18979 ft 408 kts 139°
2026-04-22 08:20 13.96861 121.72002 19299 ft 410 kts 139°
2026-04-22 08:20 13.94714 121.73956 19610 ft 412 kts 139°
2026-04-22 08:20 13.92567 121.75910 19916 ft 414 kts 139°
2026-04-22 08:20 13.90389 121.77890 20241 ft 416 kts 139°
2026-04-22 08:21 13.88212 121.79864 20558 ft 418 kts 139°
2026-04-22 08:21 13.86111 121.81932 20843 ft 421 kts 132°
2026-04-22 08:21 13.84218 121.84250 21158 ft 423 kts 130°
2026-04-22 08:21 13.82353 121.86544 21456 ft 424 kts 131°
2026-04-22 08:22 13.80447 121.88877 21756 ft 426 kts 131°
2026-04-22 08:22 13.79799 121.89669 21852 ft 427 kts 131°
2026-04-22 08:22 13.78269 121.91532 22086 ft 428 kts 131°
2026-04-22 08:22 13.76338 121.93881 22373 ft 430 kts 131°
2026-04-22 08:23 13.74407 121.96242 22655 ft 432 kts 131°
2026-04-22 08:23 13.72471 121.98620 22930 ft 434 kts 131°
2026-04-22 08:23 13.70526 122.01010 23201 ft 436 kts 131°
2026-04-22 08:23 13.68573 122.03404 23464 ft 438 kts 131°
2026-04-22 08:24 13.66607 122.05813 23704 ft 440 kts 131°
2026-04-22 08:24 13.64633 122.08228 23937 ft 442 kts 131°
2026-04-22 08:24 13.62651 122.10656 24183 ft 443 kts 131°
2026-04-22 08:24 13.60666 122.13085 24427 ft 445 kts 131°
2026-04-22 08:25 13.58674 122.15520 24676 ft 446 kts 131°
2026-04-22 08:25 13.56671 122.17967 24919 ft 447 kts 131°
2026-04-22 08:25 13.54663 122.20415 25154 ft 449 kts 131°
2026-04-22 08:25 13.52646 122.22874 25392 ft 450 kts 131°
2026-04-22 08:26 13.50621 122.25337 25629 ft 452 kts 131°
2026-04-22 08:26 13.48590 122.27812 25868 ft 453 kts 131°
2026-04-22 08:26 13.46559 122.30291 26097 ft 454 kts 131°
2026-04-22 08:26 13.44524 122.32778 26339 ft 456 kts 131°
2026-04-22 08:27 13.42483 122.35276 26579 ft 457 kts 131°
2026-04-22 08:27 13.40432 122.37786 26807 ft 458 kts 131°
2026-04-22 08:27 13.38377 122.40298 27048 ft 460 kts 131°
2026-04-22 08:27 13.36310 122.42814 27269 ft 461 kts 131°
2026-04-22 08:28 13.34231 122.45338 27497 ft 462 kts 131°
2026-04-22 08:28 13.32152 122.47862 27721 ft 464 kts 131°
2026-04-22 08:28 13.30066 122.50398 27949 ft 465 kts 131°
2026-04-22 08:28 13.27971 122.52943 28170 ft 467 kts 131°
2026-04-22 08:29 13.25900 122.55459 28389 ft 468 kts 131°
2026-04-22 08:29 13.23795 122.58019 28598 ft 469 kts 131°
2026-04-22 08:29 13.21685 122.60590 28803 ft 471 kts 130°
2026-04-22 08:29 13.19573 122.63162 29014 ft 472 kts 131°
2026-04-22 08:30 13.17449 122.65746 29220 ft 474 kts 131°
2026-04-22 08:30 13.15314 122.68342 29448 ft 475 kts 131°
2026-04-22 08:30 13.13183 122.70931 29646 ft 476 kts 131°
2026-04-22 08:30 13.11041 122.73530 29854 ft 478 kts 131°
2026-04-22 08:31 13.08884 122.76146 30088 ft 478 kts 131°
2026-04-22 08:31 13.06740 122.78747 30331 ft 477 kts 131°
2026-04-22 08:31 13.02476 122.83917 30783 ft 477 kts 131°
2026-04-22 08:32 13.00339 122.86506 30852 ft 470 kts 131°
2026-04-22 08:32 12.96183 122.91543 30860 ft 459 kts 131°
2026-04-22 08:33 12.92060 122.96535 30862 ft 458 kts 131°
2026-04-22 08:33 12.87941 123.01520 30859 ft 458 kts 131°
2026-04-22 08:34 12.83822 123.06502 30858 ft 457 kts 131°
2026-04-22 08:34 12.79702 123.11484 30857 ft 457 kts 131°
2026-04-22 08:35 12.75615 123.16430 30855 ft 457 kts 131°
2026-04-22 08:35 12.71493 123.21403 30853 ft 457 kts 131°
2026-04-22 08:36 12.67378 123.26366 30849 ft 457 kts 131°
2026-04-22 08:36 12.63264 123.31326 30847 ft 457 kts 131°
2026-04-22 08:37 12.59154 123.36282 30847 ft 457 kts 131°
2026-04-22 08:37 12.55065 123.41211 30845 ft 457 kts 131°
2026-04-22 08:38 12.50916 123.46208 30843 ft 457 kts 131°
2026-04-22 08:38 12.46821 123.51142 30846 ft 457 kts 131°
2026-04-22 08:39 12.42699 123.56103 30850 ft 457 kts 131°
2026-04-22 08:39 12.38570 123.61063 30849 ft 457 kts 131°
2026-04-22 08:40 12.34460 123.66029 30851 ft 457 kts 130°
2026-04-22 08:40 12.30410 123.71043 30849 ft 457 kts 130°
2026-04-22 08:41 12.26378 123.76070 30849 ft 457 kts 130°
2026-04-22 08:41 12.22337 123.81080 30849 ft 457 kts 130°
2026-04-22 08:42 12.18272 123.86082 30853 ft 457 kts 130°
2026-04-22 08:42 12.16243 123.88574 30630 ft 455 kts 130°
2026-04-22 08:42 12.14214 123.91067 30011 ft 455 kts 130°
2026-04-22 08:42 12.12195 123.93555 29411 ft 453 kts 130°
2026-04-22 08:43 12.10192 123.96020 28878 ft 449 kts 130°
2026-04-22 08:43 12.08227 123.98438 28346 ft 445 kts 130°
2026-04-22 08:43 12.06254 124.00865 27809 ft 442 kts 130°
2026-04-22 08:43 12.04301 124.03268 27293 ft 439 kts 130°
2026-04-22 08:44 12.02359 124.05664 26764 ft 436 kts 130°
2026-04-22 08:44 12.00433 124.08038 26266 ft 433 kts 130°
2026-04-22 08:44 11.98517 124.10397 25773 ft 429 kts 130°
2026-04-22 08:44 11.96616 124.12737 25297 ft 426 kts 130°
2026-04-22 08:45 11.94728 124.15058 24814 ft 423 kts 130°
2026-04-22 08:45 11.92849 124.17370 24351 ft 420 kts 130°
2026-04-22 08:45 11.90988 124.19657 23884 ft 417 kts 130°
2026-04-22 08:45 11.89140 124.21927 23419 ft 414 kts 130°
2026-04-22 08:46 11.87323 124.24159 22892 ft 411 kts 130°
2026-04-22 08:46 11.85499 124.26398 22438 ft 406 kts 130°
2026-04-22 08:46 11.83700 124.28606 21988 ft 402 kts 130°
2026-04-22 08:46 11.81920 124.30790 21523 ft 398 kts 130°
2026-04-22 08:47 11.80150 124.32961 21066 ft 394 kts 130°
2026-04-22 08:47 11.78403 124.35106 20606 ft 392 kts 130°
2026-04-22 08:47 11.76671 124.37237 20144 ft 389 kts 130°
2026-04-22 08:47 11.74945 124.39355 19687 ft 387 kts 130°
2026-04-22 08:48 11.73807 124.40748 19384 ft 386 kts 130°
2026-04-22 08:48 11.72089 124.42849 18932 ft 384 kts 130°
2026-04-22 08:48 11.69827 124.45622 18339 ft 382 kts 130°
2026-04-22 08:48 11.68126 124.47708 17847 ft 381 kts 130°
2026-04-22 08:49 11.66430 124.49787 17399 ft 379 kts 130°
2026-04-22 08:49 11.65294 124.51180 17099 ft 377 kts 130°
2026-04-22 08:49 11.63638 124.53209 16684 ft 374 kts 131°
2026-04-22 08:49 11.61977 124.55242 16235 ft 372 kts 131°
2026-04-22 08:50 11.60328 124.57259 15817 ft 369 kts 131°
2026-04-22 08:50 11.58684 124.59268 15391 ft 367 kts 131°
2026-04-22 08:50 11.57056 124.61259 14977 ft 365 kts 131°
2026-04-22 08:50 11.55434 124.63242 14556 ft 363 kts 131°
2026-04-22 08:51 11.53821 124.65216 14137 ft 362 kts 131°
2026-04-22 08:51 11.52209 124.67187 13713 ft 360 kts 131°
2026-04-22 08:51 11.50597 124.69137 13254 ft 358 kts 134°
2026-04-22 08:51 11.48735 124.70805 12827 ft 353 kts 147°
2026-04-22 08:52 11.46703 124.72215 12405 ft 351 kts 147°
2026-04-22 08:52 11.44695 124.73604 11992 ft 348 kts 147°
2026-04-22 08:52 11.42719 124.74970 11571 ft 346 kts 147°
2026-04-22 08:52 11.40730 124.76348 11152 ft 344 kts 147°
2026-04-22 08:53 11.38758 124.77718 10732 ft 343 kts 147°
2026-04-22 08:53 11.36788 124.79084 10308 ft 341 kts 147°
2026-04-22 08:53 11.34838 124.80436 10046 ft 334 kts 147°
2026-04-22 08:53 11.32954 124.81742 9928 ft 322 kts 146°
2026-04-22 08:54 11.31134 124.83004 9821 ft 311 kts 147°
2026-04-22 08:54 11.29381 124.84221 9675 ft 298 kts 146°
2026-04-22 08:54 11.27695 124.85392 9118 ft 289 kts 146°
2026-04-22 08:54 11.26045 124.86535 8582 ft 285 kts 147°
2026-04-22 08:55 11.24403 124.87634 8190 ft 278 kts 147°
2026-04-22 08:55 11.22789 124.88688 7928 ft 276 kts 148°
2026-04-22 08:55 11.22243 124.89042 7816 ft 275 kts 147°
2026-04-22 08:56 11.17954 124.91819 6867 ft 271 kts 147°
2026-04-22 08:56 11.13236 124.94887 5803 ft 266 kts 147°
2026-04-22 08:57 11.11682 124.95904 5438 ft 265 kts 146°
2026-04-22 08:57 11.10137 124.96915 5079 ft 262 kts 146°
2026-04-22 08:57 11.08645 124.97890 4737 ft 254 kts 146°
2026-04-22 08:57 11.07173 124.98850 4397 ft 248 kts 146°
2026-04-22 08:58 11.05735 124.99786 4076 ft 242 kts 145°
2026-04-22 08:58 11.04475 125.00868 3773 ft 233 kts 121°
2026-04-22 08:58 11.04078 125.02413 3466 ft 228 kts 83°
2026-04-22 08:58 11.04690 125.03832 3218 ft 218 kts 48°
2026-04-22 08:59 11.05958 125.04572 2997 ft 209 kts 13°
2026-04-22 08:59 11.07358 125.04438 2760 ft 201 kts 339°
2026-04-22 08:59 11.08425 125.03594 2539 ft 194 kts 315°
2026-04-22 08:59 11.09393 125.02690 2332 ft 185 kts 330°
2026-04-22 09:00 11.10535 125.02170 2152 ft 175 kts 349°
2026-04-22 09:00 11.11724 125.02045 1950 ft 167 kts
2026-04-22 09:00 11.12846 125.02125 1763 ft 157 kts
2026-04-22 09:00 11.13939 125.02197 1576 ft 157 kts
2026-04-22 09:01 11.15024 125.02268 1371 ft 156 kts
2026-04-22 09:01 11.16112 125.02338 1155 ft 156 kts
2026-04-22 09:01 11.17186 125.02409 952 ft 154 kts
2026-04-22 09:01 11.18101 125.02470 783 ft 158 kts
2026-04-22 09:02 11.19195 125.02542 579 ft 156 kts
2026-04-22 09:02 11.20277 125.02611 368 ft 156 kts
2026-04-22 09:02 11.21365 125.02672 147 ft 156 kts
2026-04-22 09:02 11.22438 125.02754 49 ft 148 kts
2026-04-22 09:03 11.23398 125.02843 28 ft 134 kts 360°
2026-04-22 09:03 11.24360 125.02945 530 ft 137 kts 12°
2026-04-22 09:03 11.25374 125.03090 916 ft 151 kts 10°
2026-04-22 09:03 11.26435 125.03138 1245 ft 154 kts
2026-04-22 09:04 11.27513 125.03142 1582 ft 155 kts
2026-04-22 09:04 11.28635 125.03146 1736 ft 168 kts
2026-04-22 09:04 11.29832 125.03182 1835 ft 175 kts 11°
2026-04-22 09:04 11.30938 125.03732 1941 ft 190 kts 48°
2026-04-22 09:05 11.31506 125.04955 2073 ft 199 kts 86°
2026-04-22 09:05 11.31108 125.06328 2188 ft 217 kts 126°
2026-04-22 09:05 11.29776 125.07167 2443 ft 237 kts 160°
2026-04-22 09:05 11.28154 125.07542 2922 ft 241 kts 167°
2026-04-22 09:06 11.26495 125.07801 3010 ft 241 kts 169°
2026-04-22 09:06 11.24835 125.08024 3020 ft 240 kts 170°
2026-04-22 09:06 11.23182 125.08250 3019 ft 239 kts 169°
2026-04-22 09:06 11.21529 125.08490 3024 ft 239 kts 168°
2026-04-22 09:07 11.19904 125.08738 3018 ft 238 kts 168°
2026-04-22 09:07 11.18274 125.08997 3018 ft 236 kts 168°
2026-04-22 09:07 11.16642 125.09262 3016 ft 238 kts 167°
2026-04-22 09:07 11.15006 125.09532 3015 ft 238 kts 168°
2026-04-22 09:08 11.13370 125.09804 3023 ft 238 kts 168°
2026-04-22 09:08 11.11737 125.10074 3022 ft 238 kts 168°
2026-04-22 09:08 11.10098 125.10343 3021 ft 238 kts 168°
2026-04-22 09:08 11.08465 125.10614 3020 ft 238 kts 168°
2026-04-22 09:09 11.06828 125.10887 3021 ft 238 kts 168°
2026-04-22 09:09 11.05190 125.11160 3018 ft 239 kts 169°
2026-04-22 09:09 11.03538 125.11056 3011 ft 242 kts 201°
2026-04-22 09:09 11.02275 125.09950 3016 ft 241 kts 240°
2026-04-22 09:10 11.01932 125.08343 3011 ft 232 kts 271°
2026-04-22 09:10 11.02105 125.06720 2592 ft 237 kts 280°
2026-04-22 09:10 11.02417 125.05026 1962 ft 249 kts 281°
2026-04-22 09:10 11.03003 125.03379 1424 ft 247 kts 306°
2026-04-22 09:11 11.04248 125.02208 931 ft 236 kts 333°
2026-04-22 09:11 11.05706 125.01717 1074 ft 203 kts 353°
2026-04-22 09:11 11.07098 125.01600 1612 ft 194 kts
2026-04-22 09:11 11.08374 125.01668 2078 ft 181 kts
2026-04-22 09:12 11.09555 125.01770 1999 ft 162 kts
2026-04-22 09:12 11.10654 125.01868 1923 ft 156 kts
2026-04-22 09:12 11.11729 125.01962 1831 ft 154 kts
2026-04-22 09:12 11.12796 125.02052 1752 ft 154 kts
2026-04-22 09:13 11.13870 125.02138 1636 ft 156 kts
2026-04-22 09:13 11.14951 125.02221 1389 ft 155 kts
2026-04-22 09:13 11.16019 125.02300 1185 ft 154 kts 10°
2026-04-22 09:13 11.17081 125.02378 985 ft 153 kts
2026-04-22 09:14 11.18162 125.02456 784 ft 157 kts
2026-04-22 09:14 11.19246 125.02531 578 ft 155 kts
2026-04-22 09:14 11.20320 125.02604 366 ft 156 kts
2026-04-22 09:14 11.21403 125.02684 136 ft 156 kts
2026-04-22 09:15 11.22461 125.02746 20 ft 142 kts
2026-04-22 09:15 11.23197 125.02804 15 ft 63 kts
2026-04-22 09:15 11.23498 125.02824 17 ft 42 kts
2026-04-22 09:15 11.23664 125.02812 17 ft 9 kts 330°
2026-04-22 09:16 11.23695 125.02822 18 ft 2 kts 101°
2026-04-22 09:16 11.23687 125.02828 18 ft 1 kts 140°
2026-04-22 09:16 11.23655 125.02835 16 ft 10 kts 174°
2026-04-22 09:16 11.23545 125.02826 19 ft 22 kts 184°
2026-04-22 09:17 11.23352 125.02814 14 ft 34 kts 184°
2026-04-22 09:17 11.23101 125.02799 15 ft 36 kts 182°
2026-04-22 09:17 11.22852 125.02781 15 ft 36 kts 184°
2026-04-22 09:17 11.22627 125.02766 17 ft 23 kts 184°
2026-04-22 09:18 11.22567 125.02729 18 ft 5 kts 263°
2026-04-22 09:18 11.22582 125.02699 17 ft 5 kts 306°
2026-04-22 09:18 11.22609 125.02686 17 ft 4 kts 351°
2026-04-22 09:18 11.22632 125.02686 17 ft 3 kts
2026-04-22 09:19 11.22647 125.02686 19 ft 2 kts 356°
2026-04-22 09:19 11.22662 125.02677 16 ft 5 kts 324°
2026-04-22 09:19 11.22674 125.02665 16 ft 0 kts 311°
2026-04-22 09:19 11.22676 125.02662 16 ft 0 kts 311°
2026-04-22 09:20 11.22679 125.02659 16 ft 1 kts 310°
2026-04-22 09:20 11.22681 125.02656 16 ft 0 kts 310°